www.pogodaiklimat.ru

Погода и климат >> Архив погоды >> Италия >> Капо Карбонара


ПОГОДА на Капо Карбонара

  • Прогноз погоды на Капо Карбонара
  • Монитор погоды на Капо Карбонара

АРХИВ ПОГОДЫ на Капо Карбонара

Время (UTC), дата Ветер
(напр.,м/с)
 
Видим.   Явления Облачность Т
(С)
Тd
(С)
f
(%)
Тe
(С)
Тes
(С)
Комфортность P
(гПа)
Po
(гПа)
Тmin
(С)
Tmax
(С)
R
(мм)
R24
(мм)
S
(см)
06 17.02 СЗ 3 20 км ясно +11.2 +8.7 85 +9 +9 1029.8 1015.3 +11.2
09 17.02 В 9 20 км 1/1 750 м
[Cu hum]
+12.8 +10.2 84 +10 +10 1030.0 1015.6
12 17.02 Ю 8 20 км 3/3 750 м
[Sc]
+15.8 +9.9 68 +14 +15 1029.8 1015.6
15 17.02 Ю 8 20 км ясно +16.0 +9.9 67 +14 +15 1028.2 1014.0
18 17.02 ЮВ 7 20 км ясно +12.0 +9.0 82 +9 +9 1027.5 1013.1 +16.0
21 17.02 Ю 7 20 км ясно +11.2 +8.8 85 +8 +8 1027.6 1013.2
00 18.02 В 4 20 км ясно +10.6 +9.0 90 +8 +8 1027.5 1013.0
03 18.02 В 5 20 км ясно +10.6 +8.1 85 +8 +8 1026.6 1012.1
06 18.02 СВ 11 20 км 4/4 750 м
[Sc diur, vesp]
+10.8 +9.2 90 +6 +6 1025.6 1011.2 +10.6
09 18.02 В 13 20 км 8/8 600 м
[Sc diur, vesp]
+12.0 +8.5 79 +8 +8 1026.2 1011.8
12 18.02 В 13 20 км 4/4 600 м
[Cu med, cong]
+16.2 +12.2 77 +14 +14 1025.3 1011.1
15 18.02 В 13 20 км 4/4 600 м
[Cu med, cong]
+15.8 +10.8 72 +13 +13 1023.7 1009.6
18 18.02 В 12 20 км 4/4 600 м
[Cu med, cong]
+11.8 +9.5 86 +8 +8 1023.8 1009.5 +16.8
21 18.02 В 13 20 км 3/3 600 м
[Cu med, cong]
+11.8 +9.5 86 +7 +7 1023.8 1009.5
00 19.02 В 11 20 км 3/3 600 м
[Cu hum]
+11.6 +9.2 85 +8 +8 1023.5 1009.2
03 19.02 В 12 20 км 3/3 600 м
[Cu med, cong]
+11.6 +9.5 87 +7 +7 1022.0 1007.7
06 19.02 В 12 10 км 5/5 600 м
[Cu med, cong]
+11.8 +9.2 84 +8 +8 1022.0 1007.7 +11.6
09 19.02 В 14 10 км 4/4 600 м
[Cu med, cong]
+13.0 +9.7 80 +9 +9 1022.5 1008.3
12 19.02 В 12 10 км 4/4 600 м
[Cu med, cong]
+16.2 +12.3 78 +14 +14 1022.0 1007.9
15 19.02 В 11 20 км 4/4 600 м
[Cu med, cong Ci fib]
+16.0 +11.8 76 +14 +14 1021.4 1007.3
18 19.02 В 11 10 км 4/4 500 м
[Cu med, cong]
+12.2 +9.8 85 +8 +8 1021.7 1007.4 +16.4
21 19.02 В 11 10 км 3/3 500 м
[Cu med, cong Ci fib]
+12.0 +9.5 85 +8 +8 1022.2 1007.9
00 20.02 В 10 10 км 3/3 500 м
[Cu med, cong]
+11.8 +9.0 83 +8 +8 1022.2 1007.9
03 20.02 В 9 10 км 4/4 480 м
[Cu med, cong]
+11.6 +8.7 82 +8 +8 1022.1 1007.7
06 20.02 СВ 10 10 км 4/4 480 м
[Cu med, cong]
+10.6 +7.5 81 +6 +6 1022.3 1007.9 +10.6
09 20.02 В 9 20 км 3/3 600 м
[Cu hum]
+12.0 +8.5 79 +9 +9 1023.5 1009.1
12 20.02 В 7 20 км 1/1 600 м
[Cu hum]
+15.0 +11.1 77 +13 +15 1023.8 1009.6
15 20.02 В 8 20 км 3/3 600 м
[Cu hum]
+16.2 +9.8 66 +15 +15 1023.6 1009.5
18 20.02 ЮВ 6 10 км 4/3 600 м
[Cu hum Ci fib]
+14.0 +11.3 84 +12 +12 1024.7 1010.4 +16.2
21 20.02 ЮВ 3 10 км 3/3 600 м
[Cu hum]
+12.4 +9.4 82 +11 +11 1025.9 1011.5
00 21.02 З 7 10 км ясно +11.6 +8.7 82 +8 +8 1025.9 1011.5
03 21.02 В 5 10 км ясно +11.0 +7.9 81 +8 +8 1026.2 1011.8
06 21.02 В 2 10 км 3/0 1500 м
[Ac trans]
+10.8 +7.5 80 +10 +10 1026.8 1012.4 +10.8
09 21.02 ЮЗ 4 20 км 1/1 600 м
[Cu hum]
+11.4 +8.3 81 +9 +13 1028.2 1013.8
12 21.02 ЮЗ 9 20 км 4/4 660 м
[Cu med, cong]
+15.2 +9.9 71 +13 +14 1028.0 1013.8
15 21.02 ЮЗ 10 20 км 1/1 660 м
[Cu hum]
+15.8 +10.8 72 +14 +14 1027.6 1013.5
18 21.02 С 2 20 км 4/1 660 м
[Cu hum Ac trans]
+14.0 +11.6 85 +13 +13 1028.1 1013.9 +15.8
21 21.02 З 6 20 км 4/1 660 м
[Cu hum Ac trans]
+11.4 +8.3 81 +8 +8 1028.4 1014.0
00 22.02 З 12 20 км ясно +10.2 +6.9 80 +5 +5 1028.4 1013.9
03 22.02 З 16 20 км ясно +9.0 +6.2 83 +3 +3 1027.5 1013.0
06 22.02 З 9 20 км ясно +9.0 +5.2 77 +4 +4 1026.7 1012.2 +9.0
09 22.02 З 10 20 км 1/1 600 м
[Cu hum]
+9.4 +4.8 73 +5 +5 1026.4 1011.9
12 22.02 З 28 20 км 3/3 900 м
[Sc diur, vesp]
+10.2 +5.4 72 +4 +4 1024.7 1010.3
15 22.02 З 13 20 км 4/4 600 м
[Cu Sc]
+10.4 +4.1 65 +6 +6 1023.0 1008.6
18 22.02 ЮВ 1 10 км ясно +10.6 +7.6 82 +10 +10 1023.2 1008.8 +11.6
21 22.02 СВ 8 10 км ясно +9.8 +7.4 85 +6 +6 1023.6 1009.2
00 23.02 С 8 10 км ясно +10.0 +6.5 79 +6 +6 1023.5 1009.1
03 23.02 З 6 10 км ясно +10.2 +7.8 85 +7 +7 1022.8 1008.4
06 23.02 С 11 20 км ясно +11.8 +4.7 62 +8 +8 1022.7 1008.4 +9.6
09 23.02 С 23 20 км 1/1 600 м
[Cu hum]
+14.0 +5.6 57 +10 +10 1022.9 1008.7
12 23.02 СВ 31 20 км 4/1 600 м
[Cu hum Ac trans]
+13.0 +1.3 45 +8 +8 1022.6 1008.4
15 23.02 СВ 41 20 км 3/3 600 м
[Cu hum]
+12.2 +1.2 47 +6 +6 1020.1 1005.9
18 23.02 СВ 37 20 км 3/1 600 м
[Cu hum Ac trans]
+11.0 -0.5 45 +4 +4 1020.8 1006.4 +14.2
21 23.02 СВ 31 10 км 5/1 600 м
[Cu hum Ac As]
+11.0 +4.7 65 +5 +5 1022.5 1008.1
00 24.02 СВ 23 10 км 8/1 600 м
[Cu hum Ac As]
+9.0 +3.8 70 +2 +2 1023.6 1009.1

 

Местоположение метеостанции Капо Карбонара (Италия): широта 39.10 долгота 9.52 высота над уровнем моря 118 м.

В архиве по умолчанию представлена погода на Капо Карбонара за последнюю неделю. Архивные данные за месяц целиком и за предыдущие месяцы, начиная с января 2011 года, Вы можете получить, выбрав интересующий диапазон дат из раскрывающегося списка и нажав кнопку "Ввод!".


*Определитесь, кто Вы:
робот инопланетянин человек

Внимание! Время в таблицах - всемирное. Для получения местного времени необходимо прибавить поправку, которая равна 1 ч.

Смотрите также архив погоды в соседних городах и на ближайших метеорологических станциях:

Погода в Дечимоманну (Италия) (55 км)
Погода на Капо Беллависто (Италия) (94 км)
Погода на Капо Фраска (Италия) (116 км)
Погода на Капо Кацция (Италия) (200 км)
Погода в Ольвии (Италия) (200 км)
Погода в Альгеро (Италия) (200 км)
Погода в Бизерте (Тунис) (207 км)
Погода в Табарке (Тунис) (248 км)
Погода на Мысе Пертюзато (Франция) (254 км)
Погода в Тунисе (Тунис) (260 км)

Пояснения к столбцам:

Ветер - указаны скорость ветра в м/с - средняя за 10 мин, порывы в срок и между сроками (в фигурных скобках) и направление, откуда дует ветер: С - северный, СВ - северо-восточный, В - восточный, ЮВ - юго-восточный, Ю - южный, ЮЗ - юго-западный, З - западный, СЗ - северо-западный.
Видимость - горизонтальная дальность видимости в метрах или километрах. При видимости от 1 до 10 км при отсутствии осадков обычно наблюдается дымка, при ухудшении видимости до 1 км и менее - туман. В сухую погоду видимость может ухудшаться дымом, пылью или мглою.
Явления - указаны атмосферные явления, наблюдавшиеся в срок или в последний час перед сроком; фигурными скобками обозначены явления, наблюдавшиеся между сроками (за 1-3 часа до срока); квадратными скобками обозначены град или гололедные отложения с указанием их диаметра в мм.
Облачность - указаны через наклонную черту общая и нижняя облачность в баллах и высота нижней границы облаков в метрах; квадратными скобками обозначены формы облаков: Ci - перистые, Cs - перисто-слоистые, Cc - перисто-кучевые, Ac - высококучевые, As - высокослоистые, Sc - слоисто-кучевые, Ns - слоисто-дождевые, Cu - кучевые, Cb - кучево-дождевые. Подробнее классификацию облаков см. в Атласе облаков (PDF).
T - Температура воздуха - температура, измеренная на высоте 2 м над землей.
Td - Температура точки росы - температура, при понижении до которой содержащийся в воздухе водяной пар достигнет насыщения.
f - Относительная влажность воздуха - влажноcть воздуха, измеренная на высоте 2 м над землей.
Te - Эффективная температура - температура, которую ощущает одетый по сезону человек в тени. Характеристика душности погоды. При расчете учитывается влияние влажности воздуха и скорости ветра на теплоощущения человека.
Tes - Эффективная температура на солнце - температура, которую ощущает человек, с поправкой на солнечный нагрев. Характеристика знойности погоды. Зависит от высоты солнца над горизонтом, облачности и скорости ветра. Ночью, в пасмурную погоду, а также при ветре 12 м/с и более поправка равна нулю.
P - Атмосферное давление - приведенное к уровню моря атмосферное давление.
Po - Атмосферное давление - измеренное на уровне метеостанции атмосферное давление.
Tmin - Минимальная температура - минимум температуры воздуха на высоте 2 м над землей.
Tmax - Максимальная температура - максимум температуры воздуха на высоте 2 м над землей.
R - Количество осадков - Количество выпавших осадков за период времени, мм. При наведении курсора мыши на число - период времени, за который выпало указанное количество осадков.
R24 - Количество осадков - Количество выпавших осадков за 24 часа, мм.
S - Снежный покров - Высота снежного покрова, см. При наведении курсора мыши на число - состояние снежного покрова и степень покрытия местности в баллах.